Simultaneous Nadir Overpasses (SNOs) Predictions

Prediction of SNOs between AQUA and GOES-15 Satellite Orbit:

Table of predicted SNOs for the next 14.0 days since TLE Epoch: 6/29/2020
Index Date Time (AQUA) AQUA Lat,Lon GOES-15 Lat,Lon Distance(km) Time Diff (sec)
1 06/30/2020 22:10:19 -0.12,-128.64 -0.03,-128.09 61.28 80
2 07/02/2020 21:58:07 0.50,-125.67 -0.02,-128.14 280.26 24
3 07/03/2020 10:19:22 0.59,-130.84 0.03,-128.21 298.34 80
4 07/05/2020 10:07:10 -0.03,-127.87 0.02,-128.25 42.54 80
5 07/07/2020 09:55:00 -0.71,-124.93 0.02,-128.29 383.12 80
6 07/07/2020 22:16:22 -0.42,-130.11 -0.02,-128.24 212.32 80
7 07/09/2020 22:04:10 0.21,-127.15 -0.02,-128.28 128.52 80
8 07/10/2020 10:25:26 0.89,-132.31 0.03,-128.36 449.84 80
9 07/11/2020 21:51:58 0.84,-124.19 -0.02,-128.32 469.16 80
10 07/12/2020 10:13:14 0.26,-129.35 0.02,-128.39 109.42 80
